| time (UTC) | temp F | wind direction | speed MPH | gust MPH | rain 1hr in | rain 24hr in | rain mn in | humidity % | barometer mb |
| 20260505124704 | 66 | 196 | 0.0 | 3.0 | 0.00 | 0.00 | 0.00 | 60 | 1009.0 |
| 20260505123703 | 65 | 212 | 0.0 | 2.0 | 0.00 | 0.00 | 0.00 | 61 | 1009.1 |
| 20260505123204 | 65 | 212 | 0.0 | 2.0 | 0.00 | 0.00 | 0.00 | 61 | 1009.2 |
| 20260505122703 | 64 | 212 | 0.0 | 2.0 | 0.00 | 0.00 | 0.00 | 62 | 1009.2 |
| 20260505122204 | 64 | 212 | 0.0 | 2.0 | 0.00 | 0.00 | 0.00 | 62 | 1009.2 |
| 20260505121704 | 63 | 212 | 0.0 | 2.0 | 0.00 | 0.00 | 0.00 | 62 | 1009.1 |
| 20260505121204 | 63 | 212 | 1.0 | 2.0 | 0.00 | 0.00 | 0.00 | 63 | 1009.2 |
| 20260505120703 | 63 | 212 | 0.0 | 1.0 | 0.00 | 0.00 | 0.00 | 63 | 1009.2 |
| 20260505120205 | 62 | 213 | 1.0 | 5.0 | 0.00 | 0.00 | 0.00 | 65 | 1009.4 |
| 20260505115703 | 62 | 208 | 2.0 | 5.0 | 0.00 | 0.00 | 0.00 | 65 | 1009.5 |
| 20260505115203 | 61 | 189 | 0.0 | 1.0 | 0.00 | 0.00 | 0.00 | 67 | 1009.4 |
| 20260505114703 | 60 | 189 | 1.0 | 3.0 | 0.00 | 0.00 | 0.00 | 67 | 1009.4 |
| 20260505114203 | 60 | 188 | 0.0 | 2.0 | 0.00 | 0.00 | 0.00 | 68 | 1009.3 |
| 20260505113703 | 60 | 188 | 2.0 | 3.0 | 0.00 | 0.00 | 0.00 | 68 | 1009.4 |
| 20260505112703 | 59 | 187 | 0.0 | 1.0 | 0.00 | 0.00 | 0.00 | 71 | 1009.3 |
| 20260505112203 | 59 | 187 | 0.0 | 2.0 | 0.00 | 0.00 | 0.00 | 71 | 1009.3 |
| 20260505111703 | 58 | 186 | 0.0 | 0.0 | 0.00 | 0.00 | 0.00 | 73 | 1009.3 |
| 20260505111203 | 57 | 186 | 0.0 | 0.0 | 0.00 | 0.00 | 0.00 | 74 | 1009.2 |
| 20260505110703 | 56 | 186 | 0.0 | 0.0 | 0.00 | 0.00 | 0.00 | 75 | 1009.1 |
| 20260505102203 | 50 | 186 | 0.0 | 0.0 | 0.00 | 0.00 | 0.00 | 80 | 1009.0 |
| 20260505101703 | 50 | 186 | 0.0 | 0.0 | 0.00 | 0.00 | 0.00 | 80 | 1008.7 |
| 20260505101203 | 50 | 186 | 0.0 | 0.0 | 0.00 | 0.00 | 0.00 | 80 | 1008.6 |
| 20260505100703 | 49 | 186 | 0.0 | 0.0 | 0.00 | 0.00 | 0.00 | 79 | 1008.6 |
| 20260505100203 | 49 | 186 | 0.0 | 0.0 | 0.00 | 0.00 | 0.00 | 79 | 1008.6 |
| 20260505095703 | 50 | 186 | 0.0 | 2.0 | 0.00 | 0.00 | 0.00 | 79 | 1008.5 |
| 20260505095202 | 50 | 186 | 0.0 | 2.0 | 0.00 | 0.00 | 0.00 | 79 | 1008.4 |
| 20260505094703 | 50 | 186 | 0.0 | 2.0 | 0.00 | 0.00 | 0.00 | 79 | 1008.3 |
| 20260505094202 | 50 | 186 | 0.0 | 1.0 | 0.00 | 0.00 | 0.00 | 78 | 1008.3 |
| 20260505093703 | 50 | 186 | 0.0 | 1.0 | 0.00 | 0.00 | 0.00 | 78 | 1008.5 |
| 20260505091203 | 52 | 186 | 0.0 | 3.0 | 0.00 | 0.00 | 0.00 | 75 | 1008.3 |
| 20260505090703 | 52 | 187 | 1.0 | 2.0 | 0.00 | 0.00 | 0.00 | 75 | 1008.4 |
| 20260505090202 | 52 | 187 | 1.0 | 3.0 | 0.00 | 0.00 | 0.00 | 75 | 1008.3 |
| 20260505085703 | 52 | 187 | 1.0 | 3.0 | 0.00 | 0.00 | 0.00 | 75 | 1008.4 |
| 20260505084703 | 52 | 186 | 0.0 | 1.0 | 0.00 | 0.00 | 0.00 | 74 | 1008.3 |
| 20260505084202 | 53 | 186 | 0.0 | 2.0 | 0.00 | 0.00 | 0.00 | 74 | 1008.4 |
| 20260505083703 | 53 | 186 | 1.0 | 2.0 | 0.00 | 0.00 | 0.00 | 73 | 1008.5 |
| 20260505083203 | 53 | 186 | 1.0 | 3.0 | 0.00 | 0.00 | 0.00 | 73 | 1008.5 |
| 20260505082703 | 53 | 172 | 0.0 | 3.0 | 0.00 | 0.00 | 0.00 | 74 | 1008.5 |
| 20260505082203 | 53 | 172 | 0.0 | 3.0 | 0.00 | 0.00 | 0.00 | 74 | 1008.6 |
| 20260505081203 | 53 | 172 | 1.0 | 3.0 | 0.00 | 0.00 | 0.00 | 73 | 1008.7 |
| 20260505080703 | 53 | 172 | 0.0 | 3.0 | 0.00 | 0.00 | 0.00 | 73 | 1008.6 |
| 20260505080203 | 53 | 172 | 1.0 | 1.0 | 0.00 | 0.00 | 0.00 | 73 | 1008.6 |
| 20260505074703 | 52 | 172 | 0.0 | 3.0 | 0.00 | 0.00 | 0.00 | 74 | 1008.7 |
| 20260505073703 | 51 | 172 | 0.0 | 1.0 | 0.00 | 0.00 | 0.00 | 75 | 1008.7 |
| 20260505073203 | 52 | 172 | 0.0 | 0.0 | 0.00 | 0.00 | 0.00 | 74 | 1008.7 |
| 20260505072703 | 52 | 172 | 0.0 | 1.0 | 0.00 | 0.00 | 0.00 | 74 | 1008.8 |
| 20260505072204 | 52 | 172 | 1.0 | 3.0 | 0.00 | 0.00 | 0.00 | 74 | 1008.7 |
| 20260505071203 | 52 | 171 | 0.0 | 0.0 | 0.00 | 0.00 | 0.00 | 73 | 1008.7 |
| 20260505070706 | 53 | 180 | 0.0 | 0.0 | 0.00 | 0.00 | 0.00 | 72 | 1008.8 |
| 20260505070204 | 53 | 171 | 1.0 | 3.0 | 0.00 | 0.00 | 0.00 | 72 | 1008.8 |
| 20260505065704 | 53 | 170 | 1.0 | 2.0 | 0.00 | 0.00 | 0.00 | 71 | 1008.8 |
| 20260505065204 | 54 | 170 | 0.0 | 2.0 | 0.00 | 0.00 | 0.00 | 71 | 1008.9 |
| 20260505064204 | 55 | 170 | 0.0 | 2.0 | 0.00 | 0.00 | 0.00 | 69 | 1008.9 |
| 20260505063704 | 55 | 170 | 1.0 | 3.0 | 0.00 | 0.00 | 0.00 | 68 | 1009.0 |
| 20260505063204 | 55 | 170 | 1.0 | 2.0 | 0.00 | 0.00 | 0.00 | 68 | 1008.9 |
| 20260505062704 | 55 | 170 | 1.0 | 2.0 | 0.00 | 0.00 | 0.00 | 68 | 1008.9 |
| 20260505061704 | 56 | 170 | 1.0 | 2.0 | 0.00 | 0.00 | 0.00 | 66 | 1009.1 |
| 20260505060704 | 57 | 170 | 0.0 | 3.0 | 0.00 | 0.00 | 0.00 | 65 | 1009.1 |
| 20260505060204 | 57 | 104 | 1.0 | 3.0 | 0.00 | 0.00 | 0.00 | 64 | 1009.1 |
| 20260505055704 | 57 | 109 | 1.0 | 3.0 | 0.00 | 0.00 | 0.00 | 64 | 1009.1 |
| 20260505055204 | 57 | 108 | 2.0 | 8.0 | 0.00 | 0.00 | 0.00 | 64 | 1009.2 |
| 20260505054704 | 58 | 144 | 1.0 | 3.0 | 0.00 | 0.00 | 0.00 | 64 | 1009.3 |
| 20260505054204 | 57 | 145 | 1.0 | 3.0 | 0.00 | 0.00 | 0.00 | 65 | 1009.2 |
| 20260505053203 | 57 | 198 | 1.0 | 2.0 | 0.00 | 0.00 | 0.00 | 64 | 1009.4 |
| 20260505052204 | 57 | 198 | 1.0 | 2.0 | 0.00 | 0.00 | 0.00 | 64 | 1009.3 |
| 20260505051703 | 58 | 197 | 1.0 | 2.0 | 0.00 | 0.00 | 0.00 | 63 | 1009.4 |
| 20260505051204 | 58 | 197 | 1.0 | 2.0 | 0.00 | 0.00 | 0.00 | 62 | 1009.4 |
| 20260505050704 | 58 | 199 | 1.0 | 2.0 | 0.00 | 0.00 | 0.00 | 62 | 1009.5 |
| 20260505050204 | 58 | 199 | 1.0 | 3.0 | 0.00 | 0.00 | 0.00 | 62 | 1009.5 |
| 20260505041704 | 60 | 183 | 1.0 | 3.0 | 0.00 | 0.00 | 0.00 | 60 | 1009.4 |
| 20260505041204 | 59 | 121 | 1.0 | 2.0 | 0.00 | 0.00 | 0.00 | 60 | 1009.4 |
| 20260505040704 | 60 | 121 | 1.0 | 2.0 | 0.00 | 0.00 | 0.00 | 60 | 1009.4 |
| 20260505040204 | 60 | 121 | 0.0 | 3.0 | 0.00 | 0.00 | 0.00 | 59 | 1009.3 |
| 20260505035703 | 60 | 122 | 1.0 | 7.0 | 0.00 | 0.00 | 0.00 | 59 | 1009.4 |
| 20260505035204 | 59 | 133 | 0.0 | 3.0 | 0.00 | 0.00 | 0.00 | 60 | 1009.4 |
| 20260505034704 | 60 | 189 | 1.0 | 2.0 | 0.00 | 0.00 | 0.00 | 60 | 1009.4 |
| 20260505034204 | 60 | 191 | 1.0 | 3.0 | 0.00 | 0.00 | 0.00 | 59 | 1009.3 |
| 20260505033704 | 60 | 172 | 1.0 | 3.0 | 0.00 | 0.00 | 0.00 | 59 | 1009.4 |
| 20260505033204 | 60 | 150 | 1.0 | 5.0 | 0.00 | 0.00 | 0.00 | 59 | 1009.3 |
| 20260505032705 | 60 | 126 | 1.0 | 3.0 | 0.00 | 0.00 | 0.00 | 58 | 1009.2 |
| 20260505032204 | 60 | 122 | 1.0 | 2.0 | 0.00 | 0.00 | 0.00 | 58 | 1009.3 |
| 20260505031704 | 61 | 119 | 1.0 | 2.0 | 0.00 | 0.00 | 0.00 | 57 | 1009.3 |
| 20260505031204 | 61 | 119 | 1.0 | 3.0 | 0.00 | 0.00 | 0.00 | 57 | 1009.4 |
| 20260505030705 | 60 | 198 | 1.0 | 5.0 | 0.00 | 0.00 | 0.00 | 59 | 1009.5 |
| 20260505030204 | 61 | 187 | 1.0 | 6.0 | 0.00 | 0.00 | 0.00 | 57 | 1009.4 |
| 20260505025704 | 61 | 141 | 2.0 | 5.0 | 0.00 | 0.00 | 0.00 | 58 | 1009.5 |
| 20260505025204 | 61 | 149 | 1.0 | 3.0 | 0.00 | 0.00 | 0.00 | 58 | 1009.4 |
| 20260505024704 | 61 | 160 | 2.0 | 3.0 | 0.00 | 0.00 | 0.00 | 57 | 1009.3 |
| 20260505024204 | 60 | 192 | 2.0 | 6.0 | 0.00 | 0.00 | 0.00 | 59 | 1009.3 |
| 20260505023704 | 60 | 160 | 1.0 | 5.0 | 0.00 | 0.00 | 0.00 | 58 | 1009.2 |
| 20260505023204 | 60 | 131 | 1.0 | 3.0 | 0.00 | 0.00 | 0.00 | 58 | 1009.3 |
| 20260505022704 | 60 | 131 | 1.0 | 3.0 | 0.00 | 0.00 | 0.00 | 58 | 1009.3 |
| 20260505021704 | 60 | 192 | 0.0 | 2.0 | 0.00 | 0.00 | 0.00 | 58 | 1009.3 |
| 20260505021204 | 61 | 192 | 1.0 | 3.0 | 0.00 | 0.00 | 0.00 | 58 | 1009.2 |
| 20260505020704 | 61 | 192 | 2.0 | 5.0 | 0.00 | 0.00 | 0.00 | 57 | 1009.3 |
| 20260505020204 | 61 | 130 | 1.0 | 2.0 | 0.00 | 0.00 | 0.00 | 57 | 1009.2 |
| 20260505015704 | 62 | 130 | 1.0 | 2.0 | 0.00 | 0.00 | 0.00 | 56 | 1009.3 |
| 20260505015204 | 62 | 128 | 1.0 | 3.0 | 0.00 | 0.00 | 0.00 | 55 | 1009.2 |
| 20260505014704 | 62 | 108 | 2.0 | 12.0 | 0.00 | 0.00 | 0.00 | 55 | 1009.1 |
| 20260505014204 | 62 | 144 | 1.0 | 3.0 | 0.00 | 0.00 | 0.00 | 56 | 1009.1 |
| 20260505013703 | 62 | 110 | 1.0 | 3.0 | 0.00 | 0.00 | 0.00 | 56 | 1009.1 |
| 20260505012704 | 62 | 133 | 1.0 | 2.0 | 0.00 | 0.00 | 0.00 | 55 | 1009.0 |
| 20260505012204 | 63 | 126 | 1.0 | 3.0 | 0.00 | 0.00 | 0.00 | 54 | 1008.9 |
| 20260505011204 | 63 | 137 | 2.0 | 8.0 | 0.00 | 0.00 | 0.00 | 53 | 1008.7 |
| 20260505010704 | 63 | 145 | 2.0 | 7.0 | 0.00 | 0.00 | 0.00 | 53 | 1008.7 |
| 20260505005703 | 61 | 251 | 1.0 | 2.0 | 0.00 | 0.00 | 0.00 | 54 | 1008.6 |
| 20260505005204 | 60 | 251 | 1.0 | 3.0 | 0.00 | 0.00 | 0.00 | 55 | 1008.5 |
| 20260505004704 | 61 | 251 | 1.0 | 3.0 | 0.00 | 0.00 | 0.00 | 54 | 1008.2 |
| 20260505004204 | 61 | 224 | 0.0 | 3.0 | 0.00 | 0.00 | 0.00 | 54 | 1008.1 |
| 20260505003704 | 61 | 223 | 1.0 | 3.0 | 0.00 | 0.00 | 0.00 | 55 | 1008.0 |
| 20260505003204 | 62 | 205 | 0.0 | 2.0 | 0.00 | 0.00 | 0.00 | 53 | 1008.0 |
| 20260505002704 | 62 | 205 | 0.0 | 2.0 | 0.00 | 0.00 | 0.00 | 53 | 1007.8 |
| 20260505001704 | 62 | 205 | 1.0 | 2.0 | 0.00 | 0.00 | 0.00 | 51 | 1007.6 |
| 20260505001204 | 63 | 205 | 0.0 | 0.0 | 0.00 | 0.00 | 0.00 | 50 | 1007.6 |
| 20260505000704 | 65 | 205 | 0.0 | 2.0 | 0.00 | 0.00 | 0.00 | 47 | 1007.6 |
| 20260505000204 | 66 | 205 | 0.0 | 3.0 | 0.00 | 0.00 | 0.00 | 43 | 1007.6 |
| 20260504235704 | 65 | 217 | 3.0 | 10.0 | 0.00 | 0.00 | 0.00 | 45 | 1007.6 |
| 20260504235204 | 65 | 216 | 0.0 | 0.0 | 0.00 | 0.00 | 0.00 | 47 | 1007.5 |
| 20260504234704 | 65 | 216 | 0.0 | 0.0 | 0.00 | 0.00 | 0.00 | 44 | 1007.4 |
| 20260504234204 | 66 | 216 | 0.0 | 0.0 | 0.00 | 0.00 | 0.00 | 42 | 1007.4 |
| 20260504233704 | 67 | 216 | 1.0 | 7.0 | 0.00 | 0.00 | 0.00 | 41 | 1007.4 |
| 20260504233204 | 68 | 228 | 1.0 | 2.0 | 0.00 | 0.00 | 0.00 | 41 | 1007.3 |
| 20260504232204 | 68 | 178 | 3.0 | 5.0 | 0.00 | 0.00 | 0.00 | 40 | 1007.4 |
| 20260504231704 | 69 | 162 | 2.0 | 3.0 | 0.00 | 0.00 | 0.00 | 39 | 1007.3 |
| 20260504231204 | 69 | 147 | 1.0 | 3.0 | 0.00 | 0.00 | 0.00 | 39 | 1007.2 |
| 20260504230704 | 69 | 263 | 1.0 | 3.0 | 0.00 | 0.00 | 0.00 | 38 | 1007.1 |
| 20260504225704 | 69 | 226 | 0.0 | 3.0 | 0.00 | 0.00 | 0.00 | 39 | 1006.9 |
| 20260504224704 | 69 | 225 | 2.0 | 8.0 | 0.00 | 0.00 | 0.00 | 38 | 1006.8 |
| 20260504224204 | 69 | 126 | 1.0 | 5.0 | 0.00 | 0.00 | 0.00 | 39 | 1006.7 |
| 20260504222704 | 70 | 205 | 3.0 | 10.0 | 0.00 | 0.00 | 0.00 | 37 | 1006.9 |
| 20260504222204 | 70 | 199 | 1.0 | 6.0 | 0.00 | 0.00 | 0.00 | 38 | 1006.9 |
| 20260504221704 | 70 | 214 | 2.0 | 6.0 | 0.00 | 0.00 | 0.00 | 36 | 1006.8 |
| 20260504221204 | 70 | 194 | 5.0 | 12.0 | 0.00 | 0.00 | 0.00 | 36 | 1006.8 |
| 20260504220704 | 70 | 210 | 2.0 | 9.0 | 0.00 | 0.00 | 0.00 | 36 | 1007.0 |
| 20260504220204 | 71 | 209 | 3.0 | 12.0 | 0.00 | 0.00 | 0.00 | 37 | 1007.1 |
| 20260504215704 | 70 | 178 | 2.0 | 14.0 | 0.00 | 0.00 | 0.00 | 36 | 1007.1 |
| 20260504215203 | 71 | 213 | 5.0 | 15.0 | 0.00 | 0.00 | 0.00 | 36 | 1007.0 |
| 20260504214703 | 71 | 193 | 2.0 | 6.0 | 0.00 | 0.00 | 0.00 | 36 | 1007.1 |
| 20260504214203 | 71 | 203 | 2.0 | 8.0 | 0.00 | 0.00 | 0.00 | 35 | 1007.1 |
| 20260504213204 | 72 | 209 | 2.0 | 6.0 | 0.00 | 0.00 | 0.00 | 35 | 1007.1 |
| 20260504212703 | 72 | 212 | 2.0 | 10.0 | 0.00 | 0.00 | 0.00 | 36 | 1007.1 |
| 20260504212204 | 71 | 252 | 5.0 | 12.0 | 0.00 | 0.00 | 0.00 | 37 | 1007.2 |
| 20260504211704 | 72 | 210 | 3.0 | 10.0 | 0.00 | 0.00 | 0.00 | 35 | 1007.2 |
| 20260504210704 | 71 | 216 | 2.0 | 6.0 | 0.00 | 0.00 | 0.00 | 36 | 1007.3 |
| 20260504210205 | 71 | 207 | 3.0 | 9.0 | 0.00 | 0.00 | 0.00 | 38 | 1007.3 |
| 20260504204704 | 70 | 185 | 5.0 | 12.0 | 0.00 | 0.00 | 0.00 | 37 | 1007.5 |
| 20260504204204 | 70 | 233 | 2.0 | 5.0 | 0.00 | 0.00 | 0.00 | 37 | 1007.4 |
| 20260504203703 | 70 | 218 | 3.0 | 7.0 | 0.00 | 0.00 | 0.00 | 37 | 1007.4 |
| 20260504203204 | 70 | 208 | 4.0 | 8.0 | 0.00 | 0.00 | 0.00 | 36 | 1007.4 |
| 20260504202704 | 69 | 201 | 3.0 | 13.0 | 0.00 | 0.00 | 0.00 | 36 | 1007.5 |
| 20260504202203 | 70 | 222 | 4.0 | 17.0 | 0.00 | 0.00 | 0.00 | 36 | 1007.5 |
| 20260504201704 | 70 | 204 | 3.0 | 6.0 | 0.00 | 0.00 | 0.00 | 39 | 1007.5 |
| 20260504200704 | 71 | 226 | 3.0 | 12.0 | 0.00 | 0.00 | 0.00 | 37 | 1007.7 |
| 20260504200204 | 71 | 216 | 2.0 | 10.0 | 0.00 | 0.00 | 0.00 | 39 | 1007.7 |
| 20260504195704 | 70 | 222 | 4.0 | 9.0 | 0.00 | 0.00 | 0.00 | 37 | 1007.7 |
| 20260504195204 | 69 | 178 | 2.0 | 8.0 | 0.00 | 0.00 | 0.00 | 39 | 1007.8 |
| 20260504194704 | 69 | 240 | 4.0 | 8.0 | 0.00 | 0.00 | 0.00 | 37 | 1007.8 |
| 20260504194204 | 69 | 216 | 4.0 | 10.0 | 0.00 | 0.00 | 0.00 | 37 | 1007.8 |
| 20260504193705 | 69 | 212 | 3.0 | 12.0 | 0.00 | 0.00 | 0.00 | 38 | 1008.0 |
| 20260504193204 | 70 | 208 | 5.0 | 10.0 | 0.00 | 0.00 | 0.00 | 37 | 1008.0 |
| 20260504192704 | 70 | 212 | 5.0 | 12.0 | 0.00 | 0.00 | 0.00 | 36 | 1007.9 |
| 20260504192204 | 70 | 227 | 3.0 | 9.0 | 0.00 | 0.00 | 0.00 | 36 | 1007.9 |
| 20260504191204 | 70 | 209 | 4.0 | 9.0 | 0.00 | 0.00 | 0.00 | 36 | 1008.0 |
| 20260504190705 | 70 | 162 | 6.0 | 12.0 | 0.00 | 0.00 | 0.00 | 36 | 1008.0 |
| 20260504185704 | 72 | 204 | 6.0 | 12.0 | 0.00 | 0.00 | 0.00 | 35 | 1008.1 |
| 20260504185204 | 73 | 225 | 3.0 | 9.0 | 0.00 | 0.00 | 0.00 | 38 | 1008.0 |
| 20260504184704 | 71 | 204 | 4.0 | 12.0 | 0.00 | 0.00 | 0.00 | 36 | 1008.0 |
| 20260504184204 | 70 | 211 | 3.0 | 12.0 | 0.00 | 0.00 | 0.00 | 37 | 1008.1 |
| 20260504182704 | 70 | 183 | 4.0 | 9.0 | 0.00 | 0.00 | 0.00 | 39 | 1008.1 |
| 20260504182203 | 71 | 209 | 7.0 | 12.0 | 0.00 | 0.00 | 0.00 | 35 | 1008.2 |
| 20260504181705 | 71 | 215 | 3.0 | 7.0 | 0.00 | 0.00 | 0.00 | 37 | 1008.1 |
| 20260504181204 | 71 | 187 | 3.0 | 7.0 | 0.00 | 0.00 | 0.00 | 36 | 1008.2 |
| 20260504180704 | 71 | 205 | 6.0 | 13.0 | 0.00 | 0.00 | 0.00 | 36 | 1008.4 |
| 20260504180204 | 71 | 214 | 3.0 | 13.0 | 0.00 | 0.00 | 0.00 | 37 | 1008.3 |
| 20260504175704 | 70 | 211 | 4.0 | 12.0 | 0.00 | 0.00 | 0.00 | 38 | 1008.4 |
| 20260504174704 | 69 | 221 | 5.0 | 10.0 | 0.00 | 0.00 | 0.00 | 39 | 1008.6 |
| 20260504174204 | 69 | 196 | 3.0 | 17.0 | 0.00 | 0.00 | 0.00 | 38 | 1008.5 |
| 20260504173704 | 69 | 202 | 5.0 | 17.0 | 0.00 | 0.00 | 0.00 | 40 | 1008.8 |
| 20260504173204 | 67 | 217 | 5.0 | 10.0 | 0.00 | 0.00 | 0.00 | 38 | 1008.8 |
| 20260504172704 | 67 | 211 | 6.0 | 16.0 | 0.00 | 0.00 | 0.00 | 39 | 1009.0 |
| 20260504172204 | 68 | 230 | 6.0 | 13.0 | 0.00 | 0.00 | 0.00 | 39 | 1009.1 |
| 20260504171204 | 68 | 222 | 5.0 | 9.0 | 0.00 | 0.00 | 0.00 | 40 | 1009.0 |
| 20260504170204 | 67 | 198 | 6.0 | 16.0 | 0.00 | 0.00 | 0.00 | 38 | 1009.2 |
| 20260504160205 | 65 | 204 | 5.0 | 12.0 | 0.00 | 0.00 | 0.00 | 41 | 1009.8 |
| 20260504150704 | 63 | 214 | 6.0 | 12.0 | 0.00 | 0.00 | 0.00 | 42 | 1010.4 |
| 20260504141204 | 60 | 205 | 5.0 | 9.0 | 0.00 | 0.00 | 0.00 | 44 | 1011.0 |
| 20260504140705 | 60 | 206 | 6.0 | 12.0 | 0.00 | 0.00 | 0.00 | 45 | 1011.2 |
| 20260504140204 | 59 | 220 | 3.0 | 10.0 | 0.00 | 0.00 | 0.00 | 44 | 1011.1 |
| 20260504130704 | 57 | 200 | 4.0 | 10.0 | 0.00 | 0.00 | 0.00 | 49 | 1011.2 |
| 20260504130203 | 57 | 202 | 3.0 | 10.0 | 0.00 | 0.00 | 0.00 | 50 | 1011.3 |